ON4CCM-13 Weather Reports


time (UTC)temp
F
wind
direction
speed
knots
gust
knots
rain 1hr
in
rain 24hr
in
rain mn
in
humidity
%
barometer
mb
20260505210050 52 20 1.7 5.2 0.00 0.22 0.05 89 1011.8
20260505205045 52 86 0.9 4.3 0.00 0.26 0.05 91 1011.8
20260505204043 52 17 1.7 6.1 0.00 0.32 0.05 92 1011.8
20260505203037 52 315 0.0 1.7 0.00 0.35 0.05 91 1011.9
20260505202035 52 0.0 0.0 0.00 0.43 0.05 91 1011.8
20260505201120 52 0.0 0.0 0.00 0.54 0.05 90 1011.8
20260505200056 52 112 0.9 1.7 0.00 0.72 0.05 89 1011.7
20260505195052 52 0.0 0.0 0.00 0.83 0.05 89 1011.6
20260505194050 52 0.0 0.0 0.00 1.09 0.05 88 1011.6
20260505193045 52 0.0 0.0 0.00 1.24 0.05 88 1011.5
20260505192042 52 0.0 0.0 0.00 1.24 0.05 87 1011.5
20260505191039 53 0.0 0.0 0.00 1.24 0.05 86 1011.4
20260505190034 53 0.0 0.0 0.00 1.24 0.05 86 1011.3
20260505185033 53 315 0.0 1.7 0.00 1.24 0.05 85 1011.3
20260505184026 53 315 0.0 1.7 0.00 1.24 0.05 84 1011.3
20260505183022 53 0.0 0.9 0.00 1.24 0.05 84 1011.4
20260505182018 53 135 0.0 1.7 0.00 1.24 0.05 84 1011.3
20260505181117 53 90 0.9 2.6 0.00 1.24 0.05 83 1011.4
20260505180111 53 120 0.0 1.7 0.00 1.24 0.05 83 1011.3
20260505175107 53 105 0.9 3.5 0.00 1.24 0.05 83 1011.2
20260505174104 54 23 0.0 1.7 0.00 1.24 0.05 83 1011.4
20260505173100 54 90 0.0 1.7 0.00 1.24 0.05 83 1011.5
20260505172056 54 72 0.0 2.6 0.00 1.24 0.05 82 1011.4
20260505171052 54 45 0.0 3.5 0.00 1.24 0.05 83 1011.5
20260505170050 54 95 0.9 4.3 0.00 1.24 0.05 83 1011.5
20260505165044 54 54 0.9 2.6 0.00 1.24 0.05 83 1011.5
20260505164040 54 51 0.9 3.5 0.00 1.24 0.05 84 1011.6
20260505163037 54 38 0.9 3.5 0.00 1.25 0.05 84 1011.7
20260505162033 54 122 0.9 4.3 0.00 1.25 0.05 85 1011.7
20260505161030 54 135 0.9 1.7 0.00 1.26 0.05 85 1011.8
20260505153115 54 39 1.7 4.3 0.00 1.33 0.05 88 1011.8
20260505152111 54 34 1.7 4.3 0.00 1.38 0.05 87 1011.9
20260505151107 54 86 0.9 3.5 0.00 1.46 0.05 88 1012.0
20260505150105 54 75 0.9 3.5 0.00 1.59 0.05 89 1012.0
20260505125015 53 90 0.9 5.2 0.00 1.64 0.05 99 1012.7
20260505124112 53 67 1.7 3.5 0.00 1.64 0.05 99 1012.7
20260505123110 52 50 1.7 4.3 0.00 1.64 0.05 99 1012.8
20260505122105 52 101 0.9 7.0 0.00 1.64 0.05 99 1012.9
20260505121102 52 210 1.7 4.3 0.00 1.64 0.05 99 1012.8
20260505120057 52 55 0.9 4.3 0.00 1.64 0.05 99 1012.9
20260505115054 52 352 0.9 3.5 0.00 1.64 0.05 99 1013.0
20260505114050 51 31 0.9 4.3 0.00 1.64 0.05 99 1013.0
20260505113046 51 65 1.7 6.1 0.00 1.64 0.05 99 1013.2
20260505112042 51 208 1.7 7.0 0.00 1.64 0.05 99 1013.1
20260505111040 51 84 0.9 5.2 0.00 1.64 0.05 99 1013.2
20260505102022 50 158 1.7 8.7 0.00 1.64 0.05 99 1013.4
20260505101018 50 72 1.7 7.0 0.00 1.64 0.05 99 1013.4
20260505100133 50 49 2.6 6.1 0.00 1.64 0.05 99 1013.4
20260505095111 51 77 0.9 4.3 0.00 1.64 0.05 99 1013.5
20260505094108 51 122 0.9 3.5 0.00 1.64 0.05 99 1013.4
20260505093102 51 348 1.7 4.3 0.00 1.64 0.05 99 1013.4
20260505092059 51 58 0.9 4.3 0.00 1.64 0.05 99 1013.4
20260505091054 50 45 1.7 3.5 0.00 1.64 0.05 99 1013.3
20260505090050 50 129 1.7 6.1 0.00 1.64 0.05 99 1013.5
20260505085047 50 92 1.7 4.3 0.00 1.64 0.05 99 1013.4
20260505084043 50 89 1.7 3.5 0.00 1.64 0.05 99 1013.5
20260505083040 50 69 0.9 2.6 0.00 1.64 0.05 99 1013.3
20260505082100 50 77 0.9 3.5 0.00 1.64 0.05 99 1013.4
20260505081032 50 36 2.6 7.0 0.00 1.64 0.05 99 1013.5
20260505080029 50 353 0.0 5.2 0.00 1.64 0.05 99 1013.5
20260505075047 50 7 0.9 4.3 0.00 1.64 0.05 99 1013.5
20260505074023 50 94 1.7 5.2 0.00 1.64 0.05 99 1013.5
20260505073019 50 357 1.7 7.0 0.00 1.64 0.05 99 1013.4
20260505072114 51 315 0.9 2.6 0.00 1.64 0.05 99 1013.4
20260505071111 50 49 3.5 7.0 0.00 1.64 0.05 99 1013.3
20260505070128 51 33 1.7 4.3 0.00 1.64 0.05 99 1013.4
20260505065125 50 68 0.9 4.3 0.00 1.64 0.05 99 1013.4
20260505064100 50 117 1.7 5.2 0.00 1.64 0.05 99 1013.5
20260505063056 51 25 0.9 4.3 0.00 1.64 0.05 99 1013.5
20260505062052 51 6 0.9 3.5 0.00 1.64 0.05 99 1013.5
20260505061048 51 356 0.9 6.1 0.00 1.64 0.05 99 1013.5
20260505060044 51 2 1.7 4.3 0.00 1.64 0.05 99 1013.5
20260505055042 51 314 0.9 3.5 0.00 1.64 0.05 99 1013.5
20260505054039 51 79 0.9 4.3 0.00 1.64 0.05 99 1013.3
20260505053034 51 358 0.9 4.3 0.00 1.64 0.05 99 1013.3
20260505052030 51 360 0.9 3.5 0.00 1.64 0.05 99 1013.3
20260505051026 51 90 0.9 3.5 0.00 1.64 0.05 99 1013.3
20260505041105 52 338 0.0 2.6 0.00 1.64 0.05 99 1013.2
20260505040100 52 315 0.0 2.6 0.00 1.64 0.05 99 1013.2
20260505035058 52 135 0.0 3.5 0.00 1.64 0.05 99 1013.2
20260505034053 53 99 0.9 3.5 0.00 1.64 0.05 99 1013.3
20260505033049 52 86 0.9 3.5 0.00 1.65 0.05 99 1013.3
20260505032041 53 237 0.9 4.3 0.00 1.65 0.05 99 1013.3
20260505031038 53 320 0.9 3.5 0.00 1.65 0.05 99 1013.3
20260505030035 53 28 0.9 3.5 0.00 1.65 0.05 99 1013.3
20260505025031 53 333 0.9 4.3 0.00 1.65 0.05 99 1013.5
20260505024026 53 345 0.9 3.5 0.00 1.65 0.05 99 1013.5
20260505023043 53 103 0.9 3.5 0.00 1.65 0.05 99 1013.6
20260505022019 53 23 0.9 3.5 0.00 1.65 0.05 99 1013.6
20260505021016 53 45 0.0 1.7 0.00 1.65 0.05 99 1013.6
20260505020111 54 349 0.9 5.2 0.00 1.65 0.05 99 1013.4
20260505015108 53 73 1.7 6.1 0.00 1.65 0.05 99 1013.5
20260505014106 54 303 0.9 3.5 0.00 1.65 0.05 99 1013.5
20260505013101 54 335 2.6 7.8 0.00 1.65 0.05 99 1013.6
20260505012058 54 23 0.9 5.2 0.00 1.65 0.05 99 1013.7
20260505011115 54 3 1.7 6.1 0.00 1.65 0.05 99 1013.7
20260505010050 54 317 0.9 6.1 0.01 1.65 0.05 99 1013.8
20260505005047 55 326 0.9 3.5 0.01 1.65 0.05 99 1013.9
20260505004104 55 335 0.9 5.2 0.01 1.65 0.05 99 1014.0
20260505003038 55 274 0.9 6.1 0.01 1.65 0.05 99 1013.8
20260505002035 55 29 0.9 3.5 0.01 1.65 0.05 99 1013.9
20260505001030 55 318 0.9 4.3 0.01 1.65 0.05 99 1014.0
20260505000047 55 293 0.9 2.6 0.00 1.64 0.04 99 1014.0
20260504235023 55 113 0.9 3.5 0.00 1.64 0.04 99 1014.0
20260504234039 55 305 0.9 7.0 0.00 1.64 0.04 99 1014.1
20260504233016 56 78 0.9 3.5 0.00 1.64 0.04 99 1014.1
20260504232112 56 338 0.0 2.6 0.00 1.64 0.04 99 1014.0
20260504231106 56 318 1.7 6.1 0.01 1.64 0.04 99 1014.2
20260504225058 56 45 0.0 3.5 0.05 1.64 0.04 99 1014.3
20260504224055 56 23 0.0 1.7 0.08 1.64 0.04 99 1014.4
20260504223052 56 0.0 1.7 0.12 1.64 0.04 99 1014.4
20260504222049 56 0.0 0.0 0.15 1.64 0.04 99 1014.5
20260504221044 56 293 0.0 1.7 0.19 1.63 0.02 99 1014.6
20260504220040 56 293 0.0 1.7 0.19 1.62 0.01 99 1014.8
20260504215036 57 0.0 1.7 0.20 1.59 1.59 99 1014.9
20260504214034 57 0.0 0.9 0.22 1.56 1.56 99 1015.0
20260504213049 57 180 0.0 1.7 0.22 1.52 1.52 99 1015.0
20260504212025 57 0.0 1.7 0.26 1.49 1.49 99 1015.3
20260504211101 57 0.0 0.0 0.33 1.44 1.44 99 1015.2